When you browse on this site, cookies collect data to enhance your experience and personalize the content and advertising you see.
Visit our Privacy Policy to learn more. By continuing to use the site, you agree to this use of cookies and data.
  • In United Kingdom
  • List of Countries
  • For 7 days
  • Water Temperature
  • Satellite Maps
  • Weather Map
  • Weather Widgets
  • user-avatar
    Login

    Hourly Weather Newcastle

    Today, 22 April, Monday

    Time Temperature Precipitation Wind Pressure Humidity
    00:00 +19°C° 0 mm 4 mps 766 mmHg 88%
    01:00 +19°C° 0 mm 4 mps 766 mmHg 89%
    02:00 +19°C° 0 mm 4 mps 765 mmHg 88%
    03:00 +18°C° 0 mm 4 mps 765 mmHg 88%
    04:00 +18°C° 0 mm 4 mps 765 mmHg 90%
    05:00 +18°C° 0 mm 3 mps 765 mmHg 90%
    06:00 +18°C° 0 mm 3 mps 766 mmHg 89%
    07:00 +18°C° 0 mm 3 mps 766 mmHg 88%
    08:00 +20°C° 0 mm 3 mps 766 mmHg 79%
    09:00 +22°C° 0 mm 4 mps 766 mmHg 69%
    10:00 +25°C° 0 mm 3 mps 766 mmHg 58%
    11:00 +26°C° 0 mm 3 mps 766 mmHg 55%
    12:00 +27°C° 0 mm 3 mps 766 mmHg 51%
    13:00 +28°C° 0 mm 3 mps 766 mmHg 48%
    14:00 +27°C° 0 mm 4 mps 765 mmHg 52%
    15:00 +27°C° 0 mm 4 mps 765 mmHg 56%
    16:00 +26°C° 0 mm 4 mps 765 mmHg 60%
    17:00 +25°C° 0 mm 4 mps 766 mmHg 68%
    18:00 +22°C° 0 mm 4 mps 766 mmHg 75%
    19:00 +21°C° 0 mm 4 mps 767 mmHg 82%
    20:00 +20°C° 0 mm 4 mps 767 mmHg 85%
    21:00 +20°C° 0 mm 4 mps 767 mmHg 87%
    22:00 +20°C° 0 mm 4 mps 768 mmHg 90%
    23:00 +19°C° 0 mm 4 mps 768 mmHg 91%

    Tomorrow, 23 April, Tuesday

    Time Temperature Precipitation Wind Pressure Humidity
    00:00 +19°C° 0 mm 4 mps 768 mmHg 93%
    01:00 +19°C° 0 mm 3 mps 768 mmHg 94%
    02:00 +19°C° 0 mm 3 mps 768 mmHg 94%
    03:00 +18°C° 0 mm 3 mps 768 mmHg 95%
    04:00 +18°C° 0 mm 2 mps 768 mmHg 95%
    05:00 +18°C° 0 mm 2 mps 768 mmHg 95%
    06:00 +18°C° 0 mm 2 mps 768 mmHg 95%
    07:00 +18°C° 0 mm 2 mps 769 mmHg 94%
    08:00 +20°C° 0 mm 2 mps 769 mmHg 84%
    09:00 +24°C° 0 mm 2 mps 769 mmHg 75%
    10:00 +26°C° 0 mm 2 mps 769 mmHg 65%
    11:00 +26°C° 0.1 mm 3 mps 769 mmHg 63%
    12:00 +27°C° 0.1 mm 3 mps 768 mmHg 61%
    13:00 +27°C° 0.1 mm 4 mps 768 mmHg 59%
    14:00 +27°C° 0 mm 4 mps 768 mmHg 62%
    15:00 +26°C° 0 mm 4 mps 767 mmHg 65%
    16:00 +25°C° 0 mm 4 mps 767 mmHg 68%
    17:00 +23°C° 0 mm 4 mps 768 mmHg 75%
    18:00 +21°C° 0 mm 3 mps 768 mmHg 81%
    19:00 +20°C° 0 mm 3 mps 769 mmHg 87%
    20:00 +19°C° 0 mm 3 mps 769 mmHg 88%
    21:00 +19°C° 0 mm 3 mps 769 mmHg 90%
    22:00 +18°C° 0 mm 3 mps 769 mmHg 91%
    23:00 +18°C° 0 mm 2 mps 769 mmHg 92%

    Day after tomorrow, 24 April, Wednesday

    Time Temperature Precipitation Wind Pressure Humidity
    00:00 +17°C° 0 mm 2 mps 769 mmHg 93%
    01:00 +17°C° 0 mm 2 mps 769 mmHg 94%
    02:00 +17°C° 0 mm 2 mps 768 mmHg 95%
    03:00 +17°C° 0 mm 2 mps 768 mmHg 96%
    04:00 +16°C° 0 mm 2 mps 768 mmHg 97%
    05:00 +18°C° 0 mm 1 mps 768 mmHg 97%
    06:00 +18°C° 0 mm 1 mps 768 mmHg 96%
    07:00 +18°C° 0 mm 1 mps 768 mmHg 96%
    08:00 +20°C° 0 mm 1 mps 768 mmHg 85%
    09:00 +21°C° 0 mm 2 mps 768 mmHg 74%
    10:00 +25°C° 0 mm 2 mps 768 mmHg 63%
    11:00 +26°C° 0 mm 2 mps 768 mmHg 59%
    12:00 +27°C° 0 mm 2 mps 767 mmHg 54%
    13:00 +28°C° 0 mm 2 mps 767 mmHg 50%
    14:00 +27°C° 0 mm 3 mps 766 mmHg 53%
    15:00 +27°C° 0 mm 3 mps 766 mmHg 55%
    16:00 +26°C° 0 mm 3 mps 765 mmHg 58%
    17:00 +23°C° 0 mm 4 mps 765 mmHg 65%
    18:00 +22°C° 0 mm 4 mps 766 mmHg 71%
    19:00 +20°C° 0 mm 4 mps 766 mmHg 78%
    20:00 +19°C° 0 mm 4 mps 766 mmHg 81%
    21:00 +19°C° 0 mm 4 mps 766 mmHg 83%
    22:00 +18°C° 0 mm 4 mps 766 mmHg 86%
    23:00 +18°C° 0 mm 3 mps 766 mmHg 88%

    25 April, Thursday

    Time Temperature Precipitation Wind Pressure Humidity
    00:00 +17°C° 0 mm 3 mps 766 mmHg 90%
    01:00 +17°C° 0 mm 2 mps 765 mmHg 91%
    02:00 +17°C° 0 mm 2 mps 765 mmHg 90%
    03:00 +17°C° 0 mm 2 mps 765 mmHg 90%
    04:00 +17°C° 0 mm 2 mps 764 mmHg 89%
    05:00 +17°C° 0 mm 2 mps 765 mmHg 86%
    06:00 +17°C° 0 mm 2 mps 765 mmHg 84%
    07:00 +17°C° 0 mm 2 mps 765 mmHg 82%
    08:00 +20°C° 0 mm 2 mps 765 mmHg 72%
    09:00 +24°C° 0 mm 2 mps 765 mmHg 63%
    10:00 +26°C° 0 mm 2 mps 765 mmHg 53%
    11:00 +27°C° 0 mm 2 mps 764 mmHg 51%
    12:00 +28°C° 0 mm 2 mps 764 mmHg 48%
    13:00 +29°C° 0 mm 2 mps 763 mmHg 46%
    14:00 +28°C° 0 mm 2 mps 763 mmHg 52%
    15:00 +27°C° 0 mm 3 mps 763 mmHg 59%
    16:00 +26°C° 0 mm 3 mps 762 mmHg 65%
    17:00 +24°C° 0 mm 3 mps 763 mmHg 74%
    18:00 +21°C° 0 mm 2 mps 763 mmHg 84%
    19:00 +20°C° 0 mm 2 mps 763 mmHg 93%
    20:00 +19°C° 0 mm 2 mps 764 mmHg 93%
    21:00 +19°C° 0 mm 2 mps 764 mmHg 93%
    22:00 +18°C° 0 mm 2 mps 764 mmHg 93%
    23:00 +18°C° 0 mm 2 mps 763 mmHg 92%

    26 April, Friday

    Time Temperature Precipitation Wind Pressure Humidity
    00:00 +18°C° 0 mm 2 mps 763 mmHg 91%
    01:00 +18°C° 0 mm 2 mps 762 mmHg 90%
    02:00 +18°C° 0 mm 3 mps 762 mmHg 86%
    03:00 +17°C° 0 mm 3 mps 762 mmHg 82%
    04:00 +17°C° 0 mm 4 mps 761 mmHg 78%
    05:00 +17°C° 0 mm 4 mps 762 mmHg 76%
    06:00 +17°C° 0 mm 4 mps 762 mmHg 75%
    07:00 +17°C° 0 mm 4 mps 762 mmHg 74%
    08:00 +19°C° 0 mm 4 mps 762 mmHg 63%
    09:00 +22°C° 0 mm 4 mps 762 mmHg 51%
    10:00 +25°C° 0 mm 4 mps 762 mmHg 40%
    11:00 +26°C° 0 mm 4 mps 761 mmHg 35%
    12:00 +27°C° 0 mm 3 mps 761 mmHg 30%
    13:00 +29°C° 0 mm 3 mps 760 mmHg 25%
    14:00 +28°C° 0 mm 3 mps 760 mmHg 28%
    15:00 +28°C° 0 mm 2 mps 760 mmHg 31%
    16:00 +27°C° 0 mm 2 mps 760 mmHg 34%
    17:00 +25°C° 0 mm 2 mps 761 mmHg 38%
    18:00 +23°C° 0 mm 2 mps 762 mmHg 41%
    19:00 +19°C° 0 mm 3 mps 763 mmHg 45%
    20:00 +19°C° 0 mm 4 mps 763 mmHg 48%
    21:00 +17°C° 0 mm 5 mps 764 mmHg 51%
    22:00 +16°C° 0 mm 7 mps 765 mmHg 54%
    23:00 +15°C° 0 mm 6 mps 765 mmHg 56%

    27 April, Saturday

    Time Temperature Precipitation Wind Pressure Humidity
    00:00 +14°C° 0 mm 5 mps 765 mmHg 58%
    01:00 +13°C° 0 mm 5 mps 765 mmHg 60%
    02:00 +12°C° 0 mm 4 mps 765 mmHg 63%
    03:00 +12°C° 0 mm 4 mps 765 mmHg 65%
    04:00 +11°C° 0 mm 4 mps 766 mmHg 68%
    05:00 +11°C° 0 mm 4 mps 766 mmHg 69%
    06:00 +10°C° 0 mm 4 mps 766 mmHg 70%
    07:00 +10°C° 0 mm 3 mps 767 mmHg 70%
    08:00 +12°C° 0 mm 3 mps 767 mmHg 64%
    09:00 +16°C° 0 mm 3 mps 767 mmHg 57%
    10:00 +18°C° 0 mm 3 mps 767 mmHg 50%
    11:00 +19°C° 0 mm 2 mps 766 mmHg 46%
    12:00 +20°C° 0 mm 2 mps 765 mmHg 43%
    13:00 +23°C° 0 mm 1 mps 765 mmHg 39%
    14:00 +23°C° 0 mm 1 mps 764 mmHg 40%
    15:00 +22°C° 0 mm 1 mps 764 mmHg 40%
    16:00 +22°C° 0 mm 1 mps 764 mmHg 41%
    17:00 +20°C° 0 mm 1 mps 764 mmHg 48%
    18:00 +18°C° 0 mm 1 mps 765 mmHg 56%
    19:00 +14°C° 0 mm 2 mps 765 mmHg 64%
    20:00 +14°C° 0 mm 2 mps 765 mmHg 64%
    21:00 +13°C° 0 mm 2 mps 765 mmHg 64%
    22:00 +12°C° 0 mm 2 mps 766 mmHg 64%
    23:00 +12°C° 0 mm 2 mps 765 mmHg 64%
    Show more